K4XP Weather Reports


Display with metric or nautical units.
time (UTC)temp
F
wind
direction
speed
MPH
gust
MPH
rain 1hr
in
rain 24hr
in
rain mn
in
humidity
%
barometer
mb
20260505202022 78 171 0.0 6.0 0.00 0.00 0.00 37 1013.8
20260505201518 78 187 0.0 12.0 0.00 0.00 0.00 38 1013.9
20260505201014 78 161 5.0 12.0 0.00 0.00 0.00 37 1014.1
20260505200530 78 203 0.0 1.0 0.00 0.00 0.00 37 1014.2
20260505200026 77 172 0.0 1.0 0.00 0.00 0.00 36 1014.3
20260505195523 77 172 0.0 0.0 0.00 0.00 0.00 37 1014.3
20260505195022 77 202 0.0 1.0 0.00 0.00 0.00 38 1014.4
20260505194518 77 182 0.0 0.0 0.00 0.00 0.00 37 1014.5
20260505194015 78 172 0.0 0.0 0.00 0.00 0.00 37 1014.6
20260505193512 78 185 0.0 1.0 0.00 0.00 0.00 37 1014.6
20260505193029 78 192 0.0 1.0 0.00 0.00 0.00 38 1014.6
20260505192524 78 225 0.0 1.0 0.00 0.00 0.00 38 1014.7
20260505192020 77 182 0.0 1.0 0.00 0.00 0.00 37 1014.8
20260505191520 77 223 0.0 0.0 0.00 0.00 0.00 39 1014.8
20260505191017 77 178 0.0 10.0 0.00 0.00 0.00 39 1014.9
20260505190513 76 146 2.0 10.0 0.00 0.00 0.00 38 1014.9
20260505190030 76 207 0.0 1.0 0.00 0.00 0.00 40 1014.9
20260505185526 76 271 0.0 0.0 0.00 0.00 0.00 39 1015.0
20260505185021 77 201 0.0 1.0 0.00 0.00 0.00 38 1014.9
20260505184517 77 201 0.0 0.0 0.00 0.00 0.00 37 1015.0
20260505184018 77 153 0.0 1.0 0.00 0.00 0.00 38 1015.0
20260505183514 76 163 0.0 7.0 0.00 0.00 0.00 39 1015.1
20260505183011 77 212 0.0 14.0 0.00 0.00 0.00 39 1015.2
20260505182527 77 178 1.0 10.0 0.00 0.00 0.00 41 1015.3
20260505182023 76 196 0.0 1.0 0.00 0.00 0.00 40 1015.5
20260505181520 76 168 0.0 1.0 0.00 0.00 0.00 40 1015.7
20260505181026 76 240 0.0 1.0 0.00 0.00 0.00 40 1015.9
20260505180522 76 191 0.0 6.0 0.00 0.00 0.00 41 1015.9
20260505180024 76 218 0.0 10.0 0.00 0.00 0.00 39 1015.9
20260505175519 76 211 3.0 10.0 0.00 0.00 0.00 40 1016.0
20260505175015 76 161 0.0 2.0 0.00 0.00 0.00 41 1016.0
20260505174511 75 201 0.0 1.0 0.00 0.00 0.00 41 1016.1
20260505174027 75 165 0.0 1.0 0.00 0.00 0.00 43 1016.1
20260505173523 75 213 0.0 1.0 0.00 0.00 0.00 43 1016.1
20260505173019 75 262 0.0 1.0 0.00 0.00 0.00 41 1016.2
20260505172519 75 173 0.0 1.0 0.00 0.00 0.00 41 1016.1
20260505172016 74 193 0.0 1.0 0.00 0.00 0.00 43 1016.0
20260505171512 75 198 0.0 1.0 0.00 0.00 0.00 42 1016.0
20260505171028 75 181 0.0 0.0 0.00 0.00 0.00 44 1016.0
20260505170523 75 174 0.0 0.0 0.00 0.00 0.00 42 1016.0
20260505170022 74 231 0.0 0.0 0.00 0.00 0.00 44 1016.1
20260505165519 74 196 0.0 0.0 0.00 0.00 0.00 43 1016.1
20260505165019 74 153 0.0 1.0 0.00 0.00 0.00 45 1016.1
20260505164515 74 219 0.0 14.0 0.00 0.00 0.00 44 1016.2
20260505164011 74 189 1.0 14.0 0.00 0.00 0.00 45 1016.1
20260505163527 74 229 6.0 14.0 0.00 0.00 0.00 46 1016.0
20260505163024 74 184 0.0 1.0 0.00 0.00 0.00 49 1016.1
20260505162519 73 221 0.0 1.0 0.00 0.00 0.00 48 1016.2
20260505162016 74 235 0.0 0.0 0.00 0.00 0.00 49 1016.3
20260505161517 73 230 0.0 1.0 0.00 0.00 0.00 54 1016.5
20260505161013 73 184 0.0 1.0 0.00 0.00 0.00 53 1016.4
20260505160528 72 207 0.0 1.0 0.00 0.00 0.00 54 1016.4
20260505153027 70 191 0.0 0.0 0.00 0.00 0.00 57 1017.0
20260505152524 70 165 0.0 0.0 0.00 0.00 0.00 58 1016.9
20260505152021 70 235 0.0 0.0 0.00 0.00 0.00 57 1016.9
20260505151517 70 182 0.0 0.0 0.00 0.00 0.00 58 1017.0
20260505151013 69 204 0.0 0.0 0.00 0.00 0.00 59 1017.0
20260505150513 69 175 0.0 0.0 0.00 0.00 0.00 59 1017.0
20260505140530 65 157 0.0 1.0 0.00 0.00 0.00 72 1016.6
20260505125012 59 171 0.0 0.0 0.00 0.00 0.00 80 1016.4
20260505124526 59 185 0.0 0.0 0.00 0.00 0.00 80 1016.4
20260505124022 59 174 0.0 0.0 0.00 0.00 0.00 81 1016.4
20260505123518 58 169 0.0 0.0 0.00 0.00 0.00 81 1016.3
20260505123012 58 220 0.0 0.0 0.00 0.00 0.00 81 1016.3
20260505122528 57 177 0.0 0.0 0.00 0.00 0.00 81 1016.3
20260505122023 57 178 0.0 0.0 0.00 0.00 0.00 82 1016.3
20260505121517 57 173 0.0 0.0 0.00 0.00 0.00 83 1016.2
20260505121012 56 202 0.0 0.0 0.00 0.00 0.00 83 1016.2
20260505120512 56 202 0.0 0.0 0.00 0.00 0.00 83 1016.1
20260505115519 55 194 0.0 0.0 0.00 0.00 0.00 84 1016.0
20260505115014 55 194 0.0 0.0 0.00 0.00 0.00 84 1015.9
20260505114529 54 198 0.0 0.0 0.00 0.00 0.00 85 1016.0
20260505114025 54 196 0.0 0.0 0.00 0.00 0.00 85 1016.0
20260505113515 53 219 0.0 0.0 0.00 0.00 0.00 85 1016.0
20260505113012 53 195 0.0 0.0 0.00 0.00 0.00 86 1016.0
20260505112524 52 198 0.0 0.0 0.00 0.00 0.00 86 1016.0
20260505112014 52 199 0.0 0.0 0.00 0.00 0.00 86 1016.0
20260505111528 52 198 0.0 0.0 0.00 0.00 0.00 86 1015.9
20260505111019 52 198 0.0 0.0 0.00 0.00 0.00 85 1015.9
20260505110511 52 198 0.0 0.0 0.00 0.00 0.00 85 1015.8
20260505102016 53 194 0.0 0.0 0.00 0.00 0.00 83 1015.7
20260505101530 53 188 0.0 0.0 0.00 0.00 0.00 83 1015.6
20260505101023 53 224 0.0 0.0 0.00 0.00 0.00 82 1015.6
20260505100513 53 224 0.0 0.0 0.00 0.00 0.00 82 1015.6
20260505100030 53 224 0.0 0.0 0.00 0.00 0.00 82 1015.5
20260505095523 53 224 0.0 0.0 0.00 0.00 0.00 81 1015.5
20260505095016 53 224 0.0 0.0 0.00 0.00 0.00 81 1015.6
20260505094511 54 224 0.0 0.0 0.00 0.00 0.00 81 1015.6
20260505094023 54 224 0.0 0.0 0.00 0.00 0.00 81 1015.6
20260505093530 54 224 0.0 0.0 0.00 0.00 0.00 81 1015.5
20260505093030 54 198 0.0 0.0 0.00 0.00 0.00 81 1015.5
20260505092525 54 223 0.0 0.0 0.00 0.00 0.00 81 1015.6
20260505092020 54 209 0.0 0.0 0.00 0.00 0.00 80 1015.4
20260505091514 54 225 0.0 0.0 0.00 0.00 0.00 80 1015.3
20260505091027 54 215 0.0 0.0 0.00 0.00 0.00 80 1015.3
20260505090521 54 220 0.0 0.0 0.00 0.00 0.00 80 1015.2
20260505090017 54 198 0.0 0.0 0.00 0.00 0.00 80 1015.2
20260505085513 54 182 0.0 0.0 0.00 0.00 0.00 80 1015.2
20260505085028 54 198 0.0 0.0 0.00 0.00 0.00 80 1015.3
20260505084521 54 186 0.0 0.0 0.00 0.00 0.00 80 1015.2
20260505084014 54 186 0.0 0.0 0.00 0.00 0.00 80 1015.1
20260505083528 54 189 0.0 0.0 0.00 0.00 0.00 79 1015.0
20260505083021 54 182 0.0 0.0 0.00 0.00 0.00 78 1015.1
20260505082517 54 182 0.0 0.0 0.00 0.00 0.00 78 1015.1
20260505082027 54 200 0.0 0.0 0.00 0.00 0.00 77 1015.1
20260505081527 55 184 0.0 0.0 0.00 0.00 0.00 77 1015.1
20260505081022 55 184 0.0 0.0 0.00 0.00 0.00 77 1015.0
20260505080516 55 184 0.0 0.0 0.00 0.00 0.00 77 1015.0
20260505080025 55 207 0.0 0.0 0.00 0.00 0.00 76 1014.9
20260505075519 55 210 0.0 0.0 0.00 0.00 0.00 76 1014.8
20260505075015 55 200 0.0 0.0 0.00 0.00 0.00 76 1014.8
20260505074529 55 200 0.0 0.0 0.00 0.00 0.00 76 1014.9
20260505074024 55 221 0.0 0.0 0.00 0.00 0.00 75 1014.8
20260505073519 55 237 0.0 0.0 0.00 0.00 0.00 75 1014.8
20260505073016 55 240 0.0 0.0 0.00 0.00 0.00 75 1015.0
20260505072528 55 246 0.0 0.0 0.00 0.00 0.00 74 1014.9
20260505072024 56 214 0.0 0.0 0.00 0.00 0.00 73 1014.9
20260505071519 56 217 0.0 0.0 0.00 0.00 0.00 73 1014.8
20260505071015 56 217 0.0 0.0 0.00 0.00 0.00 72 1014.8
20260505070511 57 217 0.0 0.0 0.00 0.00 0.00 71 1014.8
20260505070012 57 217 0.0 0.0 0.00 0.00 0.00 71 1014.8
20260505065527 57 210 0.0 0.0 0.00 0.00 0.00 70 1014.6
20260505065023 57 190 0.0 0.0 0.00 0.00 0.00 70 1014.7
20260505064519 57 187 0.0 0.0 0.00 0.00 0.00 69 1014.7
20260505064013 58 209 0.0 0.0 0.00 0.00 0.00 69 1014.7
20260505063526 58 207 0.0 0.0 0.00 0.00 0.00 68 1014.7
20260505063021 58 190 0.0 0.0 0.00 0.00 0.00 68 1014.7
20260505062520 58 182 0.0 0.0 0.00 0.00 0.00 67 1014.7
20260505062016 58 169 0.0 0.0 0.00 0.00 0.00 67 1014.7
20260505061513 58 193 0.0 0.0 0.00 0.00 0.00 67 1014.8
20260505061028 58 175 0.0 0.0 0.00 0.00 0.00 67 1014.7
20260505060522 58 202 0.0 0.0 0.00 0.00 0.00 67 1014.8
20260505060019 58 202 0.0 0.0 0.00 0.00 0.00 67 1014.7
20260505055515 58 214 0.0 0.0 0.00 0.00 0.00 67 1014.7
20260505055014 58 186 0.0 0.0 0.00 0.00 0.00 67 1014.8
20260505054510 58 181 0.0 0.0 0.00 0.00 0.00 67 1014.8
20260505054027 58 196 0.0 0.0 0.00 0.00 0.00 67 1014.9
20260505053522 58 190 0.0 0.0 0.00 0.00 0.00 66 1014.8
20260505053018 58 211 0.0 0.0 0.00 0.00 0.00 66 1014.9
20260505052513 59 211 0.0 0.0 0.00 0.00 0.00 65 1015.0
20260505052028 59 211 0.0 0.0 0.00 0.00 0.00 65 1015.0
20260505051523 59 211 0.0 0.0 0.00 0.00 0.00 64 1014.9
20260505051023 60 211 0.0 0.0 0.00 0.00 0.00 63 1015.0
20260505050517 60 211 0.0 0.0 0.00 0.00 0.00 63 1015.0
20260505041510 62 188 0.0 0.0 0.00 0.00 0.00 58 1015.1
20260505041026 62 188 0.0 0.0 0.00 0.00 0.00 58 1015.1
20260505040522 62 191 0.0 0.0 0.00 0.00 0.00 57 1015.2
20260505040022 63 190 0.0 0.0 0.00 0.00 0.00 57 1015.2
20260505035517 63 201 0.0 1.0 0.00 0.00 0.00 57 1015.1
20260505035013 63 183 0.0 1.0 0.00 0.00 0.00 56 1015.1
20260505034529 63 196 0.0 1.0 0.00 0.00 0.00 56 1015.1
20260505034024 63 193 0.0 0.0 0.00 0.00 0.00 55 1015.2
20260505033516 64 180 0.0 1.0 0.00 0.00 0.00 55 1015.2
20260505033013 64 198 0.0 1.0 0.00 0.00 0.00 54 1015.2
20260505032513 64 180 0.0 0.0 0.00 0.00 0.00 54 1015.2
20260505032029 65 189 0.0 0.0 0.00 0.00 0.00 53 1015.2
20260505031525 65 186 0.0 0.0 0.00 0.00 0.00 52 1015.1
20260505031021 65 177 0.0 1.0 0.00 0.00 0.00 52 1015.1
20260505030517 65 174 0.0 1.0 0.00 0.00 0.00 51 1015.2
20260505030011 66 185 0.0 1.0 0.00 0.00 0.00 50 1015.2
20260505025527 66 159 0.0 0.0 0.00 0.00 0.00 50 1015.2
20260505025023 66 169 0.0 0.0 0.00 0.00 0.00 50 1015.1
20260505024523 66 186 0.0 1.0 0.00 0.00 0.00 49 1015.1
20260505024017 67 174 0.0 0.0 0.00 0.00 0.00 49 1015.0
20260505023512 67 183 0.0 0.0 0.00 0.00 0.00 49 1015.0
20260505023024 67 182 0.0 0.0 0.00 0.00 0.00 49 1014.9
20260505022519 67 194 0.0 0.0 0.00 0.00 0.00 49 1014.9
20260505022016 67 191 0.0 0.0 0.00 0.00 0.00 49 1014.9
20260505021529 66 166 0.0 0.0 0.00 0.00 0.00 51 1014.9
20260505021025 65 182 0.0 0.0 0.00 0.00 0.00 52 1014.8
20260505020525 65 192 0.0 0.0 0.00 0.00 0.00 53 1014.8
20260505020020 65 192 0.0 0.0 0.00 0.00 0.00 53 1014.8
20260505015516 65 192 0.0 0.0 0.00 0.00 0.00 53 1014.8
20260505015011 65 195 0.0 0.0 0.00 0.00 0.00 52 1014.7
20260505014527 65 188 0.0 0.0 0.00 0.00 0.00 51 1014.7
20260505014021 65 184 0.0 0.0 0.00 0.00 0.00 51 1014.7
20260505013517 66 184 0.0 0.0 0.00 0.00 0.00 51 1014.7
20260505013016 66 185 0.0 0.0 0.00 0.00 0.00 49 1014.6
20260505012512 66 211 0.0 0.0 0.00 0.00 0.00 49 1014.5
20260505012027 67 182 0.0 0.0 0.00 0.00 0.00 50 1014.4
20260505011523 67 182 0.0 0.0 0.00 0.00 0.00 49 1014.4
20260505011019 68 171 0.0 0.0 0.00 0.00 0.00 47 1014.5
20260505010516 68 171 0.0 0.0 0.00 0.00 0.00 47 1014.4
20260505010013 68 171 0.0 0.0 0.00 0.00 0.00 46 1014.4
20260505005512 69 171 0.0 0.0 0.00 0.00 0.00 45 1014.3
20260505005027 69 171 0.0 0.0 0.00 0.00 0.00 45 1014.3
20260505004522 69 172 0.0 0.0 0.00 0.00 0.00 44 1014.3
20260505004018 70 208 0.0 0.0 0.00 0.00 0.00 44 1014.2
20260505003513 70 197 0.0 0.0 0.00 0.00 0.00 43 1014.2
20260505003028 70 198 0.0 0.0 0.00 0.00 0.00 42 1014.1
20260505002524 71 186 0.0 0.0 0.00 0.00 0.00 42 1014.0
20260505002023 71 185 0.0 0.0 0.00 0.00 0.00 42 1013.9
20260505001520 71 183 0.0 0.0 0.00 0.00 0.00 41 1014.0
20260505001017 72 199 0.0 0.0 0.00 0.00 0.00 41 1014.0
20260505000513 72 194 0.0 1.0 0.00 0.00 0.00 40 1014.0
20260505000028 72 185 0.0 1.0 0.00 0.00 0.00 40 1014.0
20260504235525 73 198 0.0 0.0 0.00 0.00 0.00 39 1013.8
20260504235021 73 161 0.0 0.0 0.00 0.00 0.00 39 1013.8
20260504234522 73 172 0.0 0.0 0.00 0.00 0.00 39 1013.8
20260504234018 74 198 0.0 0.0 0.00 0.00 0.00 39 1013.7
20260504233513 74 196 0.0 1.0 0.00 0.00 0.00 39 1013.6
20260504233011 74 175 0.0 1.0 0.00 0.00 0.00 38 1013.5
20260504232527 74 183 0.0 0.0 0.00 0.00 0.00 38 1013.5
20260504232022 75 165 0.0 1.0 0.00 0.00 0.00 38 1013.5
20260504231518 75 153 0.0 1.0 0.00 0.00 0.00 37 1013.4
20260504231018 75 157 0.0 1.0 0.00 0.00 0.00 36 1013.5
20260504230514 75 191 0.0 1.0 0.00 0.00 0.00 36 1013.5
20260504230029 76 194 0.0 1.0 0.00 0.00 0.00 35 1013.5
20260504225525 76 160 0.0 1.0 0.00 0.00 0.00 36 1013.4
20260504225021 76 154 0.0 0.0 0.00 0.00 0.00 35 1013.4
20260504224515 76 186 0.0 0.0 0.00 0.00 0.00 35 1013.5
20260504224011 76 181 0.0 0.0 0.00 0.00 0.00 35 1013.5
20260504223511 76 148 0.0 0.0 0.00 0.00 0.00 35 1013.6
20260504223027 76 179 0.0 0.0 0.00 0.00 0.00 35 1013.6
20260504222524 76 178 0.0 0.0 0.00 0.00 0.00 36 1013.7
20260504222019 76 248 0.0 0.0 0.00 0.00 0.00 35 1013.7
20260504221515 76 208 0.0 12.0 0.00 0.00 0.00 34 1013.7
20260504221010 76 200 0.0 12.0 0.00 0.00 0.00 33 1013.8
20260504220526 76 177 2.0 9.0 0.00 0.00 0.00 35 1013.7
20260504220023 76 180 0.0 11.0 0.00 0.00 0.00 35 1013.7
20260504215523 76 161 0.0 3.0 0.00 0.00 0.00 34 1013.6
20260504215018 76 202 0.0 1.0 0.00 0.00 0.00 34 1013.6
20260504214515 76 182 0.0 0.0 0.00 0.00 0.00 34 1013.6
20260504214011 76 182 0.0 0.0 0.00 0.00 0.00 35 1013.6
20260504213527 76 229 0.0 0.0 0.00 0.00 0.00 34 1013.5
20260504213024 75 201 0.0 1.0 0.00 0.00 0.00 35 1013.5
20260504212519 76 223 0.0 1.0 0.00 0.00 0.00 33 1013.6
20260504212019 76 174 0.0 3.0 0.00 0.00 0.00 34 1013.6
20260504211516 76 190 0.0 1.0 0.00 0.00 0.00 35 1013.6
20260504211012 76 203 0.0 0.0 0.00 0.00 0.00 33 1013.6
20260504210526 76 222 0.0 0.0 0.00 0.00 0.00 32 1013.7
20260504210022 77 185 0.0 0.0 0.00 0.00 0.00 31 1013.8
20260504205518 77 180 0.0 1.0 0.00 0.00 0.00 30 1013.7
20260504205014 77 202 0.0 1.0 0.00 0.00 0.00 32 1013.8
20260504204515 77 194 0.0 0.0 0.00 0.00 0.00 33 1013.8
20260504204011 76 196 0.0 0.0 0.00 0.00 0.00 33 1013.9
20260504203527 76 183 0.0 0.0 0.00 0.00 0.00 32 1013.9
20260504203024 76 208 0.0 1.0 0.00 0.00 0.00 30 1014.0
20260504202518 76 194 0.0 1.0 0.00 0.00 0.00 31 1013.9